Change the Weather History Date:

Monday, August 19, 2013

  Actual Average Record
Temperature  
Mean Temperature 69 °F 71 °F  
Max Temperature 83 °F 81 °F 98 °F (1955)
Min Temperature 54 °F 61 °F 43 °F (1977)
Degree Days  
Heating Degree Days 0 0  
Month to date heating degree days 15 0  
Since 1 June heating degree days 66 51  
Since 1 July heating degree days 26 6  
Cooling Degree Days 4 6  
Month to date cooling degree days 60 129  
Year to date cooling degree days 549 560  
Since 1 June cooling degree days 467 513  
Growing Degree Days 18 (Base 50)    
Moisture  
Dew Point 56 °F    
Average Humidity 66    
Maximum Humidity 90    
Minimum Humidity 42    
Precipitation  
Precipitation 0.00 in 0.11 in 4.22 in (1939)
Month to date precipitation 0.90 2.21  
Year to date precipitation 31.32 23.34  
Snow  
Snow 0.00 in 0.00 in 0.00 in ()
Month to date snowfall 0.0 0.0  
Since 1 June snowfall 0.0 0.0  
Since 1 July snowfall 0.0 0.0  
Snow Depth 0.00 in    
Sea Level Pressure  
Sea Level Pressure 30.10 in    
Wind  
Wind Speed 5 mph (SW)    
Max Wind Speed 18 mph    
Max Gust Speed 24 mph    
Visibility 8 miles    
Events Fog    
T = Trace of Precipitation, MM = Missing Value Source: NWS Daily Summary

Daily Weather History Graph

Daily Weather History Graph

Search for Another Location

Airport or City:

Trip Planner

Search our weather history database for the weather conditions in past years. The results will help you decide how hot, cold, wet, or windy it might be!

Date:

Astronomy

Aug. 19, 2013 Rise Set
Actual Time 6:52 AM EDT 8:37 PM EDT
Civil Twilight 6:22 AM EDT 9:07 PM EDT
Nautical Twilight 5:45 AM EDT 9:44 PM EDT
Astronomical Twilight 5:06 AM EDT 10:23 PM EDT
Moon 7:28 PM EDT (8/19) 5:10 AM EDT (8/19)
Length of Visible Light 14h 45m
Length of Day
13h 44m
Waxing Gibbous, 97% of the Moon is Illuminated
Aug 19
Waxing Gibbous
Aug 20
Full
Aug 28
Last Quarter
Sep 5
New
Sep 12
First Quarter

Hourly Weather History & Observations

Time (EDT) Temp. Heat Index Dew Point Humidity Pressure Visibility Wind Dir Wind Speed Gust Speed Precip Events Conditions
12:53 AM 63.0 °F - 55.9 °F 78% 30.13 in 10.0 mi SSE 3.5 mph - N/A   Clear
1:53 AM 61.0 °F - 57.0 °F 87% 30.12 in 7.0 mi South 4.6 mph - N/A   Clear
2:53 AM 60.1 °F - 55.9 °F 86% 30.12 in 7.0 mi Calm Calm - N/A   Clear
3:53 AM 60.1 °F - 55.9 °F 86% 30.11 in 6.0 mi Calm Calm - N/A   Clear
4:53 AM 57.9 °F - 54.0 °F 87% 30.11 in 6.0 mi Calm Calm - N/A   Clear
5:53 AM 55.9 °F - 52.0 °F 87% 30.12 in 7.0 mi Calm Calm - N/A Fog Patches of Fog
6:01 AM 55.4 °F - 51.8 °F 88% 30.13 in 7.0 mi Calm Calm - N/A Fog Patches of Fog
6:12 AM 55.4 °F - 51.8 °F 88% 30.13 in 6.0 mi Calm Calm - N/A Fog Clear
6:53 AM 55.0 °F - 51.1 °F 86% 30.14 in 5.0 mi Calm Calm - N/A Fog Partly Cloudy
7:53 AM 57.9 °F - 53.1 °F 84% 30.14 in 4.0 mi Calm Calm - N/A Fog Partly Cloudy
8:53 AM 62.1 °F - 57.9 °F 86% 30.14 in 4.0 mi SSE 3.5 mph - N/A   Clear
9:53 AM 71.1 °F - 57.9 °F 63% 30.13 in 10.0 mi WSW 5.8 mph - N/A   Clear
10:53 AM 75.0 °F - 57.0 °F 53% 30.12 in 10.0 mi Calm Calm - N/A   Clear
12:53 PM 80.1 °F 80.4 °F 57.0 °F 45% 30.12 in 10.0 mi West 9.2 mph - N/A   Partly Cloudy
1:53 PM 80.1 °F 80.4 °F 57.0 °F 45% 30.10 in 10.0 mi WSW 9.2 mph - N/A   Scattered Clouds
2:53 PM 80.1 °F 80.6 °F 57.9 °F 47% 30.09 in 10.0 mi West 9.2 mph - N/A   Scattered Clouds
3:53 PM 82.9 °F 82.6 °F 57.9 °F 42% 30.08 in 10.0 mi WSW 17.3 mph 23.0 mph N/A   Scattered Clouds
4:53 PM 82.0 °F 81.7 °F 57.0 °F 42% 30.07 in 10.0 mi WSW 13.8 mph 18.4 mph N/A   Partly Cloudy
5:53 PM 81.0 °F 80.8 °F 55.9 °F 42% 30.06 in 10.0 mi SW 13.8 mph 17.3 mph N/A   Scattered Clouds
6:53 PM 79.0 °F - 55.9 °F 45% 30.07 in 10.0 mi WSW 10.4 mph - N/A   Partly Cloudy
7:53 PM 75.9 °F - 57.0 °F 52% 30.06 in 10.0 mi WSW 8.1 mph - N/A   Partly Cloudy
8:53 PM 73.0 °F - 55.9 °F 55% 30.06 in 10.0 mi SW 5.8 mph - N/A   Partly Cloudy
9:53 PM 71.1 °F - 57.0 °F 61% 30.07 in 10.0 mi Calm Calm - N/A   Partly Cloudy
10:53 PM 68.0 °F - 57.9 °F 70% 30.07 in 10.0 mi Calm Calm - N/A   Scattered Clouds
11:53 PM 64.0 °F - 57.9 °F 80% 30.07 in 9.0 mi Calm Calm - N/A   Scattered Clouds